Hourly Weather Muqimy

Today, 20 September, Monday

Time Temperature Precipitation Wind Pressure Humidity
00:00 +27°C° 0 mm 7 mps 718 mmHg 18%
01:00 +26°C° 0 mm 6 mps 718 mmHg 18%
02:00 +24°C° 0 mm 6 mps 718 mmHg 19%
03:00 +23°C° 0 mm 5 mps 718 mmHg 20%
04:00 +22°C° 0 mm 4 mps 719 mmHg 21%
05:00 +21°C° 0 mm 4 mps 719 mmHg 22%
06:00 +22°C° 0 mm 4 mps 719 mmHg 21%
07:00 +23°C° 0 mm 4 mps 720 mmHg 20%
08:00 +25°C° 0 mm 4 mps 720 mmHg 18%
09:00 +27°C° 0 mm 4 mps 720 mmHg 17%
10:00 +28°C° 0 mm 3 mps 720 mmHg 15%
11:00 +30°C° 0 mm 3 mps 720 mmHg 13%
12:00 +31°C° 0 mm 3 mps 719 mmHg 13%
13:00 +33°C° 0 mm 4 mps 719 mmHg 12%
14:00 +35°C° 0 mm 4 mps 718 mmHg 11%
15:00 +34°C° 0 mm 5 mps 718 mmHg 11%
16:00 +34°C° 0 mm 5 mps 718 mmHg 11%
17:00 +33°C° 0 mm 6 mps 717 mmHg 12%
18:00 +32°C° 0 mm 6 mps 717 mmHg 13%
19:00 +29°C° 0 mm 6 mps 717 mmHg 14%
20:00 +28°C° 0 mm 6 mps 717 mmHg 16%
21:00 +27°C° 0 mm 5 mps 717 mmHg 17%
22:00 +26°C° 0 mm 4 mps 717 mmHg 18%
23:00 +25°C° 0 mm 3 mps 717 mmHg 19%

Tomorrow, 21 September, Tuesday

Time Temperature Precipitation Wind Pressure Humidity
00:00 +24°C° 0 mm 3 mps 717 mmHg 20%
01:00 +24°C° 0 mm 3 mps 717 mmHg 21%
02:00 +22°C° 0 mm 3 mps 717 mmHg 22%
03:00 +21°C° 0 mm 3 mps 717 mmHg 24%
04:00 +21°C° 0 mm 2 mps 717 mmHg 25%
05:00 +20°C° 0 mm 2 mps 718 mmHg 26%
06:00 +21°C° 0 mm 2 mps 718 mmHg 25%
07:00 +23°C° 0 mm 2 mps 719 mmHg 23%
08:00 +24°C° 0 mm 2 mps 719 mmHg 21%
09:00 +26°C° 0 mm 3 mps 719 mmHg 19%
10:00 +28°C° 0 mm 3 mps 719 mmHg 17%
11:00 +30°C° 0 mm 3 mps 719 mmHg 14%
12:00 +31°C° 0 mm 3 mps 718 mmHg 13%
13:00 +34°C° 0 mm 4 mps 717 mmHg 12%
14:00 +35°C° 0 mm 5 mps 717 mmHg 11%
15:00 +34°C° 0 mm 6 mps 717 mmHg 11%
16:00 +34°C° 0 mm 7 mps 716 mmHg 12%
17:00 +34°C° 0 mm 8 mps 716 mmHg 12%
18:00 +32°C° 0 mm 8 mps 716 mmHg 13%
19:00 +31°C° 0 mm 8 mps 716 mmHg 15%
20:00 +28°C° 0 mm 8 mps 716 mmHg 16%
21:00 +27°C° 0 mm 7 mps 716 mmHg 17%
22:00 +27°C° 0 mm 7 mps 716 mmHg 17%
23:00 +26°C° 0 mm 7 mps 716 mmHg 18%

Day after tomorrow, 22 September, Wednesday

Time Temperature Precipitation Wind Pressure Humidity
00:00 +24°C° 0 mm 6 mps 716 mmHg 19%
01:00 +25°C° 0 mm 5 mps 716 mmHg 20%
02:00 +23°C° 0 mm 5 mps 716 mmHg 21%
03:00 +22°C° 0 mm 4 mps 716 mmHg 22%
04:00 +21°C° 0 mm 3 mps 717 mmHg 23%
05:00 +20°C° 0 mm 3 mps 717 mmHg 25%
06:00 +21°C° 0 mm 3 mps 717 mmHg 23%
07:00 +23°C° 0 mm 2 mps 718 mmHg 22%
08:00 +24°C° 0 mm 2 mps 718 mmHg 21%
09:00 +26°C° 0 mm 2 mps 718 mmHg 18%
10:00 +28°C° 0 mm 2 mps 718 mmHg 16%
11:00 +30°C° 0 mm 3 mps 718 mmHg 14%
12:00 +31°C° 0 mm 3 mps 718 mmHg 13%
13:00 +33°C° 0 mm 4 mps 717 mmHg 12%
14:00 +34°C° 0 mm 5 mps 717 mmHg 11%
15:00 +34°C° 0 mm 6 mps 717 mmHg 11%
16:00 +33°C° 0 mm 7 mps 716 mmHg 11%
17:00 +33°C° 0 mm 8 mps 716 mmHg 11%
18:00 +31°C° 0 mm 8 mps 717 mmHg 12%
19:00 +29°C° 0 mm 8 mps 717 mmHg 13%
20:00 +27°C° 0 mm 7 mps 717 mmHg 14%
21:00 +26°C° 0 mm 7 mps 717 mmHg 14%
22:00 +26°C° 0 mm 6 mps 717 mmHg 15%
23:00 +25°C° 0 mm 5 mps 717 mmHg 16%

23 September, Thursday

Time Temperature Precipitation Wind Pressure Humidity
00:00 +23°C° 0 mm 4 mps 717 mmHg 16%
01:00 +22°C° 0 mm 4 mps 717 mmHg 17%
02:00 +22°C° 0 mm 3 mps 717 mmHg 18%
03:00 +21°C° 0 mm 3 mps 717 mmHg 20%
04:00 +20°C° 0 mm 3 mps 718 mmHg 21%
05:00 +19°C° 0 mm 2 mps 718 mmHg 22%
06:00 +20°C° 0 mm 2 mps 718 mmHg 21%
07:00 +21°C° 0 mm 2 mps 719 mmHg 19%
08:00 +24°C° 0 mm 2 mps 719 mmHg 18%
09:00 +25°C° 0 mm 2 mps 719 mmHg 16%
10:00 +27°C° 0 mm 2 mps 720 mmHg 14%
11:00 +29°C° 0 mm 2 mps 720 mmHg 12%
12:00 +30°C° 0 mm 2 mps 719 mmHg 11%
13:00 +33°C° 0 mm 3 mps 719 mmHg 10%
14:00 +34°C° 0 mm 4 mps 718 mmHg 9%
15:00 +34°C° 0 mm 4 mps 718 mmHg 10%
16:00 +33°C° 0 mm 5 mps 718 mmHg 10%
17:00 +33°C° 0 mm 6 mps 718 mmHg 10%
18:00 +32°C° 0 mm 6 mps 718 mmHg 11%
19:00 +29°C° 0 mm 6 mps 718 mmHg 12%
20:00 +27°C° 0 mm 6 mps 718 mmHg 13%
21:00 +26°C° 0 mm 5 mps 718 mmHg 14%
22:00 +25°C° 0 mm 4 mps 718 mmHg 15%
23:00 +24°C° 0 mm 3 mps 718 mmHg 16%

24 September, Friday

Time Temperature Precipitation Wind Pressure Humidity
00:00 +24°C° 0 mm 3 mps 718 mmHg 17%
01:00 +22°C° 0 mm 3 mps 718 mmHg 17%
02:00 +22°C° 0 mm 3 mps 718 mmHg 18%
03:00 +21°C° 0 mm 2 mps 719 mmHg 19%
04:00 +20°C° 0 mm 2 mps 719 mmHg 20%
05:00 +19°C° 0 mm 2 mps 719 mmHg 22%
06:00 +21°C° 0 mm 2 mps 719 mmHg 20%
07:00 +23°C° 0 mm 2 mps 720 mmHg 18%
08:00 +24°C° 0 mm 1 mps 720 mmHg 17%
09:00 +26°C° 0 mm 1 mps 721 mmHg 15%
10:00 +28°C° 0 mm 1 mps 721 mmHg 13%
11:00 +30°C° 0 mm 1 mps 721 mmHg 11%
12:00 +31°C° 0 mm 1 mps 720 mmHg 10%
13:00 +32°C° 0 mm 1 mps 720 mmHg 10%
14:00 +34°C° 0 mm 2 mps 720 mmHg 9%
15:00 +34°C° 0 mm 2 mps 719 mmHg 9%
16:00 +34°C° 0 mm 2 mps 719 mmHg 9%
17:00 +34°C° 0 mm 3 mps 719 mmHg 9%
18:00 +31°C° 0 mm 2 mps 719 mmHg 11%
19:00 +28°C° 0 mm 2 mps 719 mmHg 13%
20:00 +26°C° 0 mm 1 mps 719 mmHg 15%
21:00 +25°C° 0 mm 1 mps 719 mmHg 15%
22:00 +25°C° 0 mm 1 mps 720 mmHg 16%
23:00 +24°C° 0 mm 1 mps 720 mmHg 17%

25 September, Saturday

Time Temperature Precipitation Wind Pressure Humidity
00:00 +23°C° 0 mm 1 mps 720 mmHg 17%
01:00 +23°C° 0 mm 1 mps 720 mmHg 18%
02:00 +22°C° 0 mm 1 mps 719 mmHg 19%
03:00 +21°C° 0 mm 1 mps 719 mmHg 20%
04:00 +21°C° 0 mm 1 mps 719 mmHg 20%
05:00 +20°C° 0 mm 1 mps 719 mmHg 21%
06:00 +22°C° 0 mm 1 mps 720 mmHg 19%
07:00 +23°C° 0 mm 1 mps 720 mmHg 17%
08:00 +25°C° 0 mm 1 mps 721 mmHg 15%
09:00 +27°C° 0 mm 1 mps 721 mmHg 14%
10:00 +29°C° 0 mm 1 mps 721 mmHg 12%
11:00 +31°C° 0 mm 2 mps 721 mmHg 10%
12:00 +33°C° 0 mm 1 mps 720 mmHg 9%
13:00 +34°C° 0 mm 1 mps 720 mmHg 8%
14:00 +35°C° 0 mm 1 mps 719 mmHg 8%
15:00 +35°C° 0 mm 1 mps 719 mmHg 8%
16:00 +36°C° 0 mm 2 mps 719 mmHg 8%
17:00 +36°C° 0 mm 2 mps 719 mmHg 8%
18:00 +32°C° 0 mm 2 mps 719 mmHg 9%
19:00 +30°C° 0 mm 2 mps 719 mmHg 11%
20:00 +28°C° 0 mm 2 mps 719 mmHg 12%
21:00 +27°C° 0 mm 2 mps 719 mmHg 13%
22:00 +26°C° 0 mm 2 mps 720 mmHg 14%
23:00 +25°C° 0 mm 2 mps 720 mmHg 14%
Show more

We Need Your Consent

Meteoprog and our Service Providers may store and access personal data such as cookies, device identifiers or other similar technologies on your device and process such data to personalise content and ads, as well as provide social media features and to analyse the traffic.

  • Store and/or access information on your device

    Cookies, device identifiers or other information can be stored or accessed on your device for the purposes indicated above.

  • Personalised ads and content, ad and content measurement, audience insights, and products development

    Ads and content can be personalised based on a profile. More data can be added to better personalise ads and content. Ad and content performance can be measured. Insights about the audience who saw the ads and content can be derived. Such data can be used to develop or improve user’s experience, systems and software.

By clicking ‘I Agree’ you will allow the use of indicated cookies, device identifiers, web beacons or other similar technologies. Your settings can be changed in the browser on your device.

For certain purposes, legitimate interests may be relied on, rather than consent. You can read more about this in our Privacy and Cookie Policy.